Weather in Baltay

Russia / Saratov Oblast     52°28′04″N   46°37′35″E
temp.,
°C
wind,
m/s
gust,
m/s
humid.,
%
clouds,
%
prec.,
mm/h
press.,
hPa
HPBL,
m
1 august, sun
sun101:00+23e116149 0.0 101111
04:00+21sse11690 0.0 101211
07:00+22wnw11675 0.0 101364
10:00+27wnw224749 0.0 1013751
13:00+30w343443 0.0 10132395
16:00+32wnw453146 0.0 10122538
19:00+30nw11415 0.0 101222
22:00+24ne34535 0.0 101374
2 august, mon
mon201:00+22ne22604 0.0 101425
04:00+21ene226223 0.0 101411
07:00+23e12580 0.0 101466
10:00+28s22441 0.1 1014448
13:00+33s34320 0.0 10131665
16:00+35se36224 0.0 10113515
19:00+30se343089 0.0 101163
22:00+26ese223636 0.0 101113
3 august, tue
tue301:00+25se2339100 0.0 101138
04:00+24se224229 0.0 101116
07:00+25se224511 0.0 101033
10:00+31ssw57315 0.0 1010504
13:00+36ssw68225 0.0 10093057
16:00+36sw6820100 0.0 10083656
19:00+29wsw0138100 0.0 100915
22:00+24n235399 0.0 100950
4 august, wed
wed401:00+24wnw81254100 0.0 1011462
04:00+20nne4775100 0.1 1010177
07:00+20nnw4880100 0.3 1011230
10:00+20nw4681100 2.2 1012322
13:00+26nw345398 0.1 1012946
16:00+28nw664696 0.1 10122027
19:00+25nw77483 0.0 10131047
22:00+19nnw49684 0.0 1015205
5 august, thu
thu501:00+18nnw487215 0.0 1016149
04:00+17nnw3674100 0.0 1016111
07:00+18nnw37692 0.0 1016191
10:00+24nnw454431 0.0 10161361
13:00+27n453243 0.0 10162720
16:00+27n552924 0.0 10152732
19:00+24n573536 0.0 1016661
22:00+19n495329 0.0 1017141